FW1784 Weather Reports


time (UTC)temp
C
wind
direction
speed
KPH
gust
KPH
rain 1hr
cm
rain 24hr
cm
rain mn
cm
humidity
%
barometer
mb
20260904171502 25 88 0.0 4.8 0.00 0.79 0.79 69 1010.7
20260904170103 25 92 0.0 6.4 0.00 0.79 0.79 69 1010.7
20260904164603 25 184 0.0 14.5 0.00 0.79 0.79 59 1010.8
20260904163005 26 65 3.2 16.1 0.00 0.79 0.79 59 1010.9
20260904161612 25 107 1.6 14.5 0.00 0.79 0.79 61 1011.0
20260904154503 25 80 4.8 14.5 0.00 0.79 0.79 63 1011.2
20260904153117 24 71 3.2 8.0 0.00 0.79 0.79 69 1011.4
20260904151603 24 211 1.6 14.5 0.00 0.79 0.79 74 1011.5
20260904150003 24 68 0.0 8.0 0.00 0.79 0.79 77 1011.5
20260904144502 23 182 1.6 12.9 0.00 0.79 0.79 82 1011.8
20260904143121 22 5 0.0 3.2 0.00 0.79 0.79 92 1011.7
20260904141602 22 63 0.0 0.0 0.00 0.79 0.79 95 1011.5
20260904134603 21 67 0.0 1.6 0.00 0.79 0.79 96 1011.4
20260904133113 21 67 0.0 4.8 0.00 0.79 0.79 97 1011.4
20260904131502 21 53 0.0 4.8 0.00 0.79 0.79 98 1011.4
20260904130004 21 113 0.0 4.8 0.00 0.79 0.79 99 1011.5
20260904124503 20 113 0.0 3.2 0.00 0.79 0.79 99 1011.4
20260904123102 20 113 0.0 0.0 0.00 0.79 0.79 99 1011.4
20260904121503 20 113 0.0 0.0 0.00 0.79 0.79 99 1011.3
20260904120109 20 113 0.0 0.0 0.00 0.79 0.79 99 1011.1
20260904114607 19 113 0.0 0.0 0.00 0.79 0.79 99 1011.0
20260904113005 18 113 0.0 0.0 0.00 0.79 0.79 99 1011.0
20260904111604 18 113 0.0 0.0 0.00 0.79 0.79 99 1010.8
20260904104603 18 113 0.0 0.0 0.00 0.79 0.79 98 1010.6
20260904103104 19 113 0.0 0.0 0.00 0.79 0.79 98 1010.4
20260904101607 19 113 0.0 0.0 0.00 0.79 0.79 99 1010.6
20260904100003 19 113 0.0 0.0 0.00 0.79 0.79 99 1010.4
20260904094602 20 113 0.0 0.0 0.00 0.81 0.79 99 1010.3
20260904093001 20 113 0.0 0.0 0.00 0.81 0.79 99 1010.2
20260904091602 20 113 0.0 0.0 0.00 0.81 0.79 98 1010.2
20260904084604 20 113 0.0 0.0 0.00 0.81 0.79 98 1009.8
20260904083002 20 113 0.0 0.0 0.00 0.81 0.79 99 1009.7
20260904081602 20 113 0.0 0.0 0.00 0.81 0.79 98 1009.6
20260904080119 20 113 0.0 0.0 0.00 0.81 0.79 98 1009.5
20260904074603 20 113 0.0 0.0 0.05 0.91 0.79 99 1009.6
20260904073002 20 113 0.0 0.0 0.23 0.91 0.79 99 1009.7
20260904071503 21 113 0.0 0.0 0.53 0.91 0.79 99 1009.8
20260904064502 21 113 0.0 0.0 0.66 0.84 0.71 98 1010.3
20260904063116 21 113 0.0 0.0 0.56 0.69 0.56 98 1010.6
20260904061503 21 113 0.0 0.0 0.25 0.38 0.25 98 1010.9
20260904060104 20 113 0.0 0.0 0.18 0.30 0.18 98 1010.6
20260904054603 20 113 0.0 0.0 0.05 0.25 0.05 98 1010.8
20260904053002 20 113 0.0 0.0 0.00 0.20 0.00 98 1010.7
20260904051602 20 113 0.0 0.0 0.00 0.20 0.00 98 1010.9
20260904050002 20 113 0.0 0.0 0.00 0.20 0.00 98 1010.9
20260904044502 20 113 0.0 0.0 0.00 0.51 0.00 97 1010.9
20260904043106 20 113 0.0 0.0 0.00 0.51 0.00 97 1011.1
20260904041502 20 113 0.0 0.0 0.00 0.51 0.00 97 1010.9
20260904034604 20 113 0.0 0.0 0.00 0.76 0.51 97 1011.2
20260904033103 21 113 0.0 0.0 0.00 0.76 0.51 97 1011.3
20260904031503 21 113 0.0 0.0 0.00 0.76 0.51 97 1011.3
20260904030104 21 113 0.0 0.0 0.00 0.76 0.51 97 1011.6
20260904024604 21 113 0.0 0.0 0.00 0.76 0.51 97 1011.8
20260904023002 21 113 0.0 0.0 0.00 0.76 0.51 96 1012.0
20260904021502 21 113 0.0 0.0 0.00 0.76 0.51 96 1011.8
20260904020003 21 113 0.0 0.0 0.00 0.79 0.51 96 1011.7
20260904014502 21 113 0.0 0.0 0.00 0.79 0.51 96 1012.1
20260904013122 21 113 0.0 0.0 0.00 0.79 0.51 96 1012.1
20260904011502 21 113 0.0 0.0 0.00 0.79 0.51 96 1012.0
20260904004605 21 113 0.0 0.0 0.00 0.79 0.51 96 1011.9
20260904003003 22 113 0.0 0.0 0.00 0.79 0.51 96 1011.8
20260904001603 22 113 0.0 0.0 0.00 0.79 0.51 96 1011.8
20260904000004 22 113 0.0 0.0 0.00 0.81 0.51 95 1011.7
20260903234603 22 113 0.0 0.0 0.00 0.81 0.51 94 1011.7
20260903233008 23 113 0.0 0.0 0.00 0.81 0.51 93 1011.3
20260903231604 23 113 0.0 0.0 0.00 0.81 0.51 92 1011.0
20260903230003 24 113 0.0 0.0 0.00 0.81 0.51 91 1011.2
20260903224502 24 113 0.0 0.0 0.00 0.81 0.51 90 1011.2
20260903223003 25 113 0.0 0.0 0.00 0.81 0.51 91 1011.2
20260903221603 25 113 0.0 0.0 0.00 0.81 0.51 89 1011.3
20260903220003 25 113 0.0 0.0 0.00 0.81 0.51 86 1011.1
20260903214503 26 113 0.0 0.0 0.00 0.81 0.51 86 1011.4
20260903213102 26 113 0.0 3.2 0.00 0.81 0.51 82 1011.3
20260903211605 27 117 0.0 4.8 0.00 0.81 0.51 79 1011.2
20260903210141 28 250 1.6 4.8 0.00 0.81 0.51 74 1011.1
20260903204607 28 225 1.6 4.8 0.00 0.81 0.51 70 1011.1
20260903203002 28 115 1.6 4.8 0.00 0.81 0.51 70 1011.1
20260903201602 28 165 3.2 11.3 0.00 0.81 0.51 71 1011.2
20260903200003 28 233 1.6 4.8 0.00 0.89 0.51 72 1011.4
20260903194503 28 96 1.6 6.4 0.00 0.89 0.51 72 1011.5
20260903193103 28 138 3.2 8.0 0.00 0.89 0.51 68 1011.5
20260903191508 27 76 0.0 8.0 0.00 0.89 0.51 70 1011.9
20260903184502 27 55 4.8 16.1 0.00 0.89 0.51 72 1012.0
20260903183102 28 108 3.2 12.9 0.00 0.89 0.51 70 1012.2
20260903181602 27 219 3.2 8.0 0.00 0.89 0.51 73 1012.2
20260903180002 27 178 1.6 9.7 0.00 1.42 0.51 76 1012.2
20260903174502 26 93 3.2 6.4 0.00 1.42 0.51 75 1012.4
20260903173106 26 225 1.6 8.0 0.00 1.42 0.51 79 1012.4